Location: Bismarck
(46.7731°N, 100.8200°W)
Time: 00:21:51
(UTC-05:00)

Landsat 7 - Visible Passes

Search period start: 24 April 2017 00:00
Search period end: 04 May 2017 00:00
Orbit: 701 x 703 km, 98.2° (Epoch: 22 April)

Date Brightness Start Highest point End Pass type
(mag) Time Alt. Az. Time Alt. Az. Time Alt. Az.
24 Apr 5.6 00:29:02 22° W 00:29:25 22° W 00:33:09 10° NW visible
24 Apr 5.7 21:54:27 12° E 21:56:57 17° ENE 21:59:55 10° NNE visible
24 Apr 3.9 23:33:20 58° SSW 23:34:09 72° WSW 23:38:56 10° NNW visible
25 Apr 4.6 22:37:38 28° ESE 22:39:18 36° ENE 22:43:40 10° N visible
26 Apr 5.2 00:16:31 28° WSW 00:17:06 29° W 00:21:14 10° NW visible
26 Apr 5.9 21:42:41 10° E 21:44:55 13° ENE 21:47:07 10° NNE visible
26 Apr 3.7 23:20:49 54° SSE 23:21:56 88° ENE 23:26:43 10° NNW visible
27 Apr 6.3 00:59:42 11° W 01:00:20 11° W 01:01:56 10° WNW visible
27 Apr 4.9 22:25:07 21° ESE 22:27:11 29° ENE 22:31:16 10° N visible
28 Apr 4.8 00:04:00 34° WSW 00:04:49 37° W 00:09:14 10° NNW visible
28 Apr 6.0 21:32:03 10° ENE 21:32:53 10° NE 21:33:42 10° NE visible
28 Apr 3.8 23:08:18 44° SE 23:09:44 69° ENE 23:14:29 10° N visible
29 Apr 6.0 00:47:11 15° W 00:47:58 15° W 00:50:43 10° NW visible
29 Apr 5.3 22:12:36 16° ESE 22:15:05 23° ENE 22:18:49 10° NNE visible
29 Apr 4.5 23:51:29 40° SW 23:52:32 48° W 23:57:09 10° NNW visible
30 Apr 4.1 22:55:47 34° SE 22:57:33 53° ENE 23:02:12 10° N visible
01 May 5.7 00:34:40 19° WSW 00:35:37 20° W 00:39:04 10° NW visible
01 May 5.5 22:00:05 11° E 22:03:00 19° ENE 22:06:15 10° NNE visible
01 May 4.1 23:38:58 44° SSW 23:40:17 63° W 23:45:01 10° NNW visible
02 May 4.4 22:43:16 26° ESE 22:45:23 41° ENE 22:49:51 10° N visible
03 May 5.4 00:22:09 23° WSW 00:23:16 25° W 00:27:13 10° NW visible
03 May 5.8 21:48:18 10° E 21:50:55 15° ENE 21:53:33 10° NNE visible
03 May 3.8 23:26:27 43° S 23:28:02 81° WSW 23:32:50 10° NNW visible
